Tracking 22458 objects as of 3-Mar-2021
HD Live streaming from Space Station
objects crossing your sky now

ARIANE 5 DEB (SYLDA)

Track ARIANE 5 DEB (SYLDA) now!


NORAD ID: 27833
Int'l Code: 2003-028D
Perigee: 602.2 km
Apogee: 35,698.2 km
Inclination: 6.4 °
Period: 636.9 minutes
Semi major axis: 24521 km
RCS: 16.2807 m2 (large)
Launch date: June 11, 2003
Source: France (FR)
Launch site: FRENCH GUIANA (FRGUI)

Note: This is SATELLITE DEBRIS
aabbcc
Your satellite tracking list
Your tracking list is empty




NASA's NSSDC Master Catalog

Two Line Element Set (TLE):
1 27833U 03028D   21060.92265741  .00000066  00000-0  80703-3 0  9994
2 27833   6.4433 123.0072 7156271 317.5587 264.6886  2.26095365146318
Source of the keplerian elements: AFSPC